Skip Page Navigation
NASA JPL Caltech
NASA Logo - Jet Propulsion Laboratory + View the NASA Portal
+ Near-Earth Object (NEO) Program
Search JPL
JPL Home Earth Solar System Stars & Galaxies Technology
JPL Solar System Dynamics
BODIES ORBITS EPHEMERIDES TOOLS PHYSICAL DATA DISCOVERY FAQ SITE MAP
JPL Small-Body Database Browser
Search: [ help ]  
297300 (1998 SC15)
Classification: Apollo [NEO, PHA]          SPK-ID: 2297300
Ephemeris | Orbit Diagram | Orbital Elements | Physical Parameters | Discovery Circumstances | Close-Approach Data ]

[ hide orbit diagram ]
Orbit Diagram
Note: Make sure you have Java enabled on your browser to see the applet. This applet is provided as a 3D orbit visualization tool. The applet was implemented using 2-body methods, and hence should not be used for determining accurate long-term trajectories (over several years or decades) or planetary encounter circumstances. For accurate long-term ephemerides, please instead use our Horizons system.
Orbit Viewer

Additional Notes: the orbits shown in the applet are color coded. The planets are white lines, and the asteroid/comet is a blue line. The bright white line indicates the portion of the orbit that is above the ecliptic plane, and the darker portion is below the ecliptic plane. Likewise for the asteroid/comet orbit, the light blue indicates the portion above the ecliptic plane, and the dark blue the portion below the ecliptic plane.

Orbit Viewer applet originally written and kindly provided by Osamu Ajiki (AstroArts), and further modified by Ron Baalke (JPL).


Orbital Elements at Epoch 2456400.5 (2013-Apr-18.0) TDB
Reference: JPL 58 (heliocentric ecliptic J2000)
 Element Value Uncertainty (1-sigma)   Units 
e .4145957378651063 5.0749e-08  
a 1.273026669348948 5.2946e-09 AU
q .7452352380482622 6.5642e-08 AU
i 16.08100796212979 1.3447e-05 deg
node 198.7670592165677 1.5437e-05 deg
peri 277.3805891375783 1.9062e-05 deg
M 335.2877952405914 6.1295e-06 deg
tp 2456436.513362532153
(2013-May-24.01336253)
9.0077e-06 JED
period 524.6318828205332
1.44
3.273e-06
8.961e-09
d
yr
n .6861954291922996 4.2809e-09 deg/d
Q 1.800818100649634 7.4897e-09 AU
  Orbit Determination Parameters
   # obs. used (total)      237  
   # delay obs. used      1  
   # Doppler obs. used      2  
   data-arc span      5072 days (13.89 yr)  
   first obs. used      1998-09-23  
   last obs. used      2012-08-12  
   planetary ephem.      DE405  
   SB-pert. ephem.      SB405-CPV-2  
   condition code      0  
   fit RMS      .4573  
   data source      ORB  
   producer      Otto Matic  
   solution date      2013-Apr-29 15:41:26  

Additional Information
 Earth MOID = .000345435 AU 
 T_jup = 4.952 
[ show covariance matrix ]

Ephemeris | Orbit Diagram | Orbital Elements | Physical Parameters | Discovery Circumstances | Close-Approach Data ]

Physical Parameter Table
Parameter Symbol Value Units Sigma Reference Notes
absolute magnitude H 19.163 mag .46106 58 autocmod 2.5c
diameter diameter 0.320 km 0.03 Pers. comm. Mike Nolan (Arecibo). Arecibo resolved at 0.2 us with a delay depth of 0.5-0.6 us.
rotation period rot_per 15 h n/a Pers. comm. Mike Nolan (Arecibo). Probable contact binary (bilobate) as per Arecibo radar

297300 (1998 SC15)          Discovered 1998-Sep-23 by LINEAR at Socorro (704)
Reference: 20111012/Numbers.arcLast Updated: 2011-10-13

[ show close-approach data ]
Ephemeris | Orbit Diagram | Orbital Elements | Physical Parameters | Discovery Circumstances | Close-Approach Data ]
ABOUT SSD CREDITS/AWARDS PRIVACY/COPYRIGHT GLOSSARY LINKS
FirstGov 2013-May-23 00:48 UT
(server date/time)  
NASA Home Page
Site Manager:   Donald K. Yeomans
Webmaster  Alan B. Chamberlin